Time,TemperatureF,DewpointF,PressureIn,WindDirection,WindDirectionDegrees,WindSpeedMPH,WindSpeedGustMPH,Humidity,HourlyPrecipIn,Conditions,Clouds,dailyrainin,SoftwareType,DateUTC
2013-06-18 00:01:00,62.6,62.1,29.91,WSW,248,2.0,2.0,98,0.00,,,0.00,meteohub,2013-06-18 07:01:00,
2013-06-18 00:06:00,62.4,61.9,29.91,WSW,248,0.0,2.0,98,0.00,,,0.00,meteohub,2013-06-18 07:06:00,
2013-06-18 00:11:00,62.4,61.9,29.91,WSW,248,1.0,2.0,98,0.00,,,0.00,meteohub,2013-06-18 07:11:00,
2013-06-18 00:16:00,62.2,61.9,29.90,WSW,248,2.0,2.0,99,0.00,,,0.00,meteohub,2013-06-18 07:16:00,
2013-06-18 00:21:00,62.2,61.9,29.90,West,270,2.0,2.0,99,0.00,,,0.00,meteohub,2013-06-18 07:21:00,
2013-06-18 00:26:00,62.2,61.9,29.91,West,270,2.0,2.0,99,0.00,,,0.00,meteohub,2013-06-18 07:26:00,
2013-06-18 00:31:00,62.4,62.1,29.90,West,270,2.0,2.0,99,0.00,,,0.00,meteohub,2013-06-18 07:31:00,
2013-06-18 00:36:00,62.4,62.1,29.90,West,270,0.0,2.0,99,0.00,,,0.00,meteohub,2013-06-18 07:36:00,
2013-06-18 00:41:00,62.1,61.7,29.90,West,270,1.0,2.0,99,0.00,,,0.00,meteohub,2013-06-18 07:41:00,
2013-06-18 00:46:00,62.1,61.7,29.90,West,270,1.0,2.0,99,0.00,,,0.00,meteohub,2013-06-18 07:46:00,
2013-06-18 00:51:00,61.9,61.5,29.90,West,270,0.0,2.0,99,0.00,,,0.00,meteohub,2013-06-18 07:51:00,
2013-06-18 00:56:00,61.9,61.5,29.90,West,270,0.0,2.0,99,0.00,,,0.00,meteohub,2013-06-18 07:56:00,
2013-06-18 01:01:00,61.7,61.3,29.90,West,270,1.0,2.0,99,0.00,,,0.00,meteohub,2013-06-18 08:01:00,
2013-06-18 01:06:00,61.7,61.3,29.90,West,270,0.0,2.0,99,0.00,,,0.00,meteohub,2013-06-18 08:06:00,
2013-06-18 01:11:00,61.5,61.2,29.90,West,270,1.0,1.0,99,0.00,,,0.00,meteohub,2013-06-18 08:11:00,
2013-06-18 01:16:00,61.5,61.2,29.90,West,270,0.0,1.0,99,0.00,,,0.00,meteohub,2013-06-18 08:16:00,
2013-06-18 01:21:00,61.3,61.0,29.90,West,270,0.0,1.0,99,0.00,,,0.00,meteohub,2013-06-18 08:21:00,
2013-06-18 01:26:00,61.3,61.0,29.90,West,270,2.0,2.0,99,0.00,,,0.00,meteohub,2013-06-18 08:26:00,
2013-06-18 01:31:00,61.5,61.2,29.90,West,270,1.0,2.0,99,0.00,,,0.00,meteohub,2013-06-18 08:31:00,
2013-06-18 01:36:00,61.3,61.0,29.89,West,270,1.0,2.0,99,0.00,,,0.00,meteohub,2013-06-18 08:36:00,
2013-06-18 01:41:00,61.5,61.2,29.89,West,270,2.0,2.0,99,0.00,,,0.00,meteohub,2013-06-18 08:41:00,
2013-06-18 01:46:00,61.3,61.0,29.89,West,270,1.0,2.0,99,0.00,,,0.00,meteohub,2013-06-18 08:46:00,
2013-06-18 01:51:00,61.3,61.0,29.90,West,270,1.0,2.0,99,0.00,,,0.00,meteohub,2013-06-18 08:51:00,
2013-06-18 01:56:00,61.3,61.0,29.89,West,270,1.0,2.0,99,0.00,,,0.00,meteohub,2013-06-18 08:56:00,
2013-06-18 02:01:00,61.3,61.0,29.89,West,270,1.0,2.0,99,0.00,,,0.00,meteohub,2013-06-18 09:01:00,
2013-06-18 02:06:00,61.3,61.0,29.90,West,270,2.0,2.0,99,0.00,,,0.00,meteohub,2013-06-18 09:06:00,
2013-06-18 02:11:00,61.2,60.8,29.89,West,270,2.0,2.0,99,0.00,,,0.00,meteohub,2013-06-18 09:11:00,
2013-06-18 02:16:00,61.2,60.8,29.89,West,270,1.0,2.0,99,0.00,,,0.00,meteohub,2013-06-18 09:16:00,
2013-06-18 02:21:00,61.2,60.8,29.89,West,270,2.0,2.0,99,0.00,,,0.00,meteohub,2013-06-18 09:21:00,
2013-06-18 02:26:00,61.2,60.8,29.89,West,270,2.0,2.0,99,0.00,,,0.00,meteohub,2013-06-18 09:26:00,
2013-06-18 02:31:00,61.0,60.6,29.89,West,270,0.0,2.0,99,0.00,,,0.00,meteohub,2013-06-18 09:31:00,
2013-06-18 02:36:00,61.0,60.6,29.89,West,270,1.0,2.0,99,0.00,,,0.00,meteohub,2013-06-18 09:36:00,
2013-06-18 02:41:00,60.8,60.4,29.89,West,270,2.0,2.0,99,0.00,,,0.00,meteohub,2013-06-18 09:41:00,
2013-06-18 02:46:00,60.8,60.4,29.88,West,270,2.0,2.0,99,0.00,,,0.00,meteohub,2013-06-18 09:46:00,
2013-06-18 02:51:00,60.8,60.4,29.89,West,270,1.0,2.0,99,0.00,,,0.00,meteohub,2013-06-18 09:51:00,
2013-06-18 02:56:00,60.8,60.4,29.89,West,270,2.0,2.0,99,0.00,,,0.00,meteohub,2013-06-18 09:56:00,
2013-06-18 03:01:00,60.6,60.3,29.89,West,270,0.0,2.0,99,0.00,,,0.00,meteohub,2013-06-18 10:01:00,
2013-06-18 03:06:00,60.4,60.1,29.89,West,270,1.0,2.0,99,0.00,,,0.00,meteohub,2013-06-18 10:06:00,
2013-06-18 03:11:00,60.4,60.1,29.89,West,270,0.0,2.0,99,0.00,,,0.00,meteohub,2013-06-18 10:11:00,
2013-06-18 03:16:00,60.4,60.1,29.88,West,270,0.0,2.0,99,0.00,,,0.00,meteohub,2013-06-18 10:16:00,
2013-06-18 03:21:00,60.4,60.1,29.88,West,270,0.0,1.0,99,0.00,,,0.00,meteohub,2013-06-18 10:21:00,
2013-06-18 03:26:00,60.3,59.9,29.88,West,270,0.0,2.0,99,0.00,,,0.00,meteohub,2013-06-18 10:26:00,
2013-06-18 03:31:00,60.3,59.9,29.89,West,270,0.0,2.0,99,0.00,,,0.00,meteohub,2013-06-18 10:31:00,
2013-06-18 03:36:00,60.3,59.9,29.89,West,270,0.0,2.0,99,0.00,,,0.00,meteohub,2013-06-18 10:36:00,
2013-06-18 03:41:00,60.1,59.7,29.89,West,270,0.0,1.0,99,0.00,,,0.00,meteohub,2013-06-18 10:41:00,
2013-06-18 03:46:00,59.9,59.5,29.89,West,270,0.0,1.0,99,0.00,,,0.00,meteohub,2013-06-18 10:46:00,
2013-06-18 03:51:00,59.7,59.4,29.88,West,270,0.0,1.0,99,0.00,,,0.00,meteohub,2013-06-18 10:51:00,
2013-06-18 03:56:00,59.5,59.2,29.89,West,270,0.0,0.0,99,0.00,,,0.00,meteohub,2013-06-18 10:56:00,
2013-06-18 04:01:00,59.2,58.8,29.89,West,270,0.0,0.0,99,0.00,,,0.00,meteohub,2013-06-18 11:01:00,
2013-06-18 04:06:00,59.0,58.6,29.89,West,270,0.0,0.0,99,0.00,,,0.00,meteohub,2013-06-18 11:06:00,
2013-06-18 04:11:00,59.0,58.6,29.89,West,270,0.0,0.0,99,0.00,,,0.00,meteohub,2013-06-18 11:11:00,
2013-06-18 04:16:00,58.8,58.5,29.89,West,270,0.0,0.0,99,0.00,,,0.00,meteohub,2013-06-18 11:16:00,
2013-06-18 04:21:00,58.8,58.5,29.89,West,270,0.0,0.0,99,0.00,,,0.00,meteohub,2013-06-18 11:21:00,
2013-06-18 04:26:00,59.0,58.6,29.88,West,270,0.0,0.0,99,0.00,,,0.00,meteohub,2013-06-18 11:26:00,
2013-06-18 04:31:00,59.0,58.6,29.89,West,270,0.0,0.0,99,0.00,,,0.00,meteohub,2013-06-18 11:31:00,
2013-06-18 04:36:00,58.8,58.5,29.89,West,270,0.0,0.0,99,0.00,,,0.00,meteohub,2013-06-18 11:36:00,
2013-06-18 04:42:00,58.5,58.1,29.89,West,270,0.0,0.0,99,0.00,,,0.00,meteohub,2013-06-18 11:42:00,
2013-06-18 04:47:00,58.1,57.7,29.89,West,270,0.0,0.0,99,0.00,,,0.00,meteohub,2013-06-18 11:47:00,
2013-06-18 04:52:00,57.9,57.6,29.89,West,270,0.0,0.0,99,0.00,,,0.00,meteohub,2013-06-18 11:52:00,
2013-06-18 04:57:00,58.3,57.9,29.89,West,270,0.0,0.0,99,0.00,,,0.00,meteohub,2013-06-18 11:57:00,
2013-06-18 05:02:00,58.5,58.1,29.89,West,270,0.0,0.0,99,0.00,,,0.00,meteohub,2013-06-18 12:02:00,
2013-06-18 05:07:00,58.5,58.1,29.89,West,270,0.0,0.0,99,0.00,,,0.00,meteohub,2013-06-18 12:07:00,
2013-06-18 05:12:00,58.5,58.1,29.89,West,270,0.0,0.0,99,0.00,,,0.00,meteohub,2013-06-18 12:12:00,
2013-06-18 05:17:00,58.5,58.1,29.90,West,270,1.0,1.0,99,0.00,,,0.00,meteohub,2013-06-18 12:17:00,
2013-06-18 05:22:00,58.5,58.1,29.90,West,270,0.0,1.0,99,0.00,,,0.00,meteohub,2013-06-18 12:22:00,
2013-06-18 05:27:00,58.8,58.5,29.90,West,270,1.0,1.0,99,0.00,,,0.00,meteohub,2013-06-18 12:27:00,
2013-06-18 05:32:00,59.0,58.6,29.91,West,270,0.0,1.0,99,0.00,,,0.00,meteohub,2013-06-18 12:32:00,
2013-06-18 05:37:00,59.4,59.0,29.91,West,270,0.0,1.0,99,0.00,,,0.00,meteohub,2013-06-18 12:37:00,
2013-06-18 05:42:00,59.7,59.4,29.90,West,270,0.0,1.0,99,0.00,,,0.00,meteohub,2013-06-18 12:42:00,
2013-06-18 05:47:00,59.9,59.5,29.91,West,270,0.0,1.0,99,0.00,,,0.00,meteohub,2013-06-18 12:47:00,
2013-06-18 05:52:00,60.3,59.9,29.91,West,270,2.0,2.0,99,0.00,,,0.00,meteohub,2013-06-18 12:52:00,
2013-06-18 05:57:00,60.4,60.1,29.91,West,270,1.0,2.0,99,0.00,,,0.00,meteohub,2013-06-18 12:57:00,
2013-06-18 06:02:00,60.6,60.3,29.91,West,270,0.0,2.0,99,0.00,,,0.00,meteohub,2013-06-18 13:02:00,
2013-06-18 06:07:00,60.8,60.4,29.91,West,270,0.0,2.0,99,0.00,,,0.00,meteohub,2013-06-18 13:07:00,
2013-06-18 06:12:00,60.8,60.4,29.91,West,270,2.0,3.0,99,0.00,,,0.00,meteohub,2013-06-18 13:12:00,
2013-06-18 06:17:00,61.0,60.6,29.91,West,270,2.0,3.0,99,0.00,,,0.00,meteohub,2013-06-18 13:17:00,
2013-06-18 06:22:00,61.0,60.6,29.91,West,270,2.0,2.0,99,0.00,,,0.00,meteohub,2013-06-18 13:22:00,
2013-06-18 06:27:00,61.0,60.6,29.91,West,270,1.0,2.0,99,0.00,,,0.00,meteohub,2013-06-18 13:27:00,
2013-06-18 06:32:00,61.2,60.8,29.91,South,180,3.0,3.0,99,0.00,,,0.00,meteohub,2013-06-18 13:32:00,
2013-06-18 06:37:00,61.3,61.0,29.92,SE,135,1.0,4.0,99,0.00,,,0.00,meteohub,2013-06-18 13:37:00,
2013-06-18 06:42:00,61.3,61.0,29.92,SE,135,2.0,4.0,99,0.00,,,0.00,meteohub,2013-06-18 13:42:00,
2013-06-18 06:47:00,61.5,61.2,29.91,SE,135,1.0,4.0,99,0.00,,,0.00,meteohub,2013-06-18 13:47:00,
2013-06-18 06:52:00,61.7,61.3,29.92,SE,135,2.0,2.0,99,0.00,,,0.00,meteohub,2013-06-18 13:52:00,
2013-06-18 06:57:00,61.7,61.3,29.91,SE,135,1.0,2.0,99,0.00,,,0.00,meteohub,2013-06-18 13:57:00,
2013-06-18 07:02:00,61.7,61.3,29.92,SE,135,1.0,4.0,99,0.00,,,0.00,meteohub,2013-06-18 14:02:00,
2013-06-18 07:07:00,61.9,61.5,29.92,South,180,0.0,4.0,99,0.00,,,0.00,meteohub,2013-06-18 14:07:00,
2013-06-18 07:12:00,61.9,61.5,29.92,South,180,2.0,4.0,99,0.00,,,0.00,meteohub,2013-06-18 14:12:00,
2013-06-18 07:17:00,62.1,61.7,29.92,South,180,2.0,2.0,99,0.00,,,0.00,meteohub,2013-06-18 14:17:00,
2013-06-18 07:22:00,62.2,61.9,29.93,West,270,3.0,3.0,99,0.00,,,0.00,meteohub,2013-06-18 14:22:00,
2013-06-18 07:27:00,62.2,61.9,29.92,WNW,293,3.0,3.0,99,0.00,,,0.00,meteohub,2013-06-18 14:27:00,
2013-06-18 07:32:00,62.2,61.9,29.92,West,270,2.0,4.0,99,0.00,,,0.00,meteohub,2013-06-18 14:32:00,
2013-06-18 07:37:00,62.4,62.1,29.93,NW,315,2.0,4.0,99,0.00,,,0.00,meteohub,2013-06-18 14:37:00,
2013-06-18 07:42:00,62.4,62.1,29.93,NW,315,4.0,4.0,99,0.00,,,0.00,meteohub,2013-06-18 14:42:00,
2013-06-18 07:47:00,63.0,62.6,29.93,NW,315,2.0,4.0,99,0.00,,,0.00,meteohub,2013-06-18 14:47:00,
2013-06-18 07:52:00,63.1,62.8,29.93,WNW,293,2.0,4.0,99,0.00,,,0.00,meteohub,2013-06-18 14:52:00,
2013-06-18 07:57:00,63.5,63.1,29.93,WNW,293,1.0,4.0,99,0.00,,,0.00,meteohub,2013-06-18 14:57:00,
2013-06-18 08:02:00,63.9,63.3,29.93,WNW,293,1.0,4.0,98,0.00,,,0.00,meteohub,2013-06-18 15:02:00,
2013-06-18 08:07:00,64.2,62.8,29.93,WNW,293,6.0,6.0,95,0.00,,,0.00,meteohub,2013-06-18 15:07:00,
2013-06-18 08:12:00,64.0,62.2,29.94,WNW,293,0.0,6.0,94,0.00,,,0.00,meteohub,2013-06-18 15:12:00,
2013-06-18 08:17:00,64.6,62.4,29.93,NW,315,4.0,6.0,93,0.00,,,0.00,meteohub,2013-06-18 15:17:00,
2013-06-18 08:22:00,64.8,62.4,29.94,NW,315,3.0,6.0,92,0.00,,,0.00,meteohub,2013-06-18 15:22:00,
2013-06-18 08:27:00,64.8,62.1,29.94,SSW,203,2.0,4.0,91,0.00,,,0.00,meteohub,2013-06-18 15:27:00,
2013-06-18 08:32:00,65.1,62.1,29.94,West,270,3.0,4.0,90,0.00,,,0.00,meteohub,2013-06-18 15:32:00,
2013-06-18 08:37:00,65.3,61.7,29.94,West,270,2.0,4.0,88,0.00,,,0.00,meteohub,2013-06-18 15:37:00,
2013-06-18 08:42:00,66.2,62.6,29.94,West,270,4.0,4.0,88,0.00,,,0.00,meteohub,2013-06-18 15:42:00,
2013-06-18 08:47:00,66.9,62.2,29.94,West,270,4.0,4.0,85,0.00,,,0.00,meteohub,2013-06-18 15:47:00,
2013-06-18 08:52:00,67.6,62.6,29.94,WNW,293,4.0,4.0,84,0.00,,,0.00,meteohub,2013-06-18 15:52:00,
2013-06-18 08:57:00,67.3,61.5,29.94,WNW,293,2.0,4.0,82,0.00,,,0.00,meteohub,2013-06-18 15:57:00,
2013-06-18 09:02:00,67.3,61.5,29.94,North,0,3.0,4.0,82,0.00,,,0.00,meteohub,2013-06-18 16:02:00,
2013-06-18 09:07:00,67.5,61.3,29.94,NW,315,4.0,4.0,81,0.00,,,0.00,meteohub,2013-06-18 16:07:00,
2013-06-18 09:12:00,67.5,61.7,29.94,North,0,4.0,7.0,82,0.00,,,0.00,meteohub,2013-06-18 16:12:00,
2013-06-18 09:17:00,68.4,61.9,29.94,West,270,4.0,7.0,80,0.00,,,0.00,meteohub,2013-06-18 16:17:00,
2013-06-18 09:22:00,69.1,62.6,29.94,SW,225,2.0,7.0,80,0.00,,,0.00,meteohub,2013-06-18 16:22:00,
2013-06-18 09:27:00,69.6,61.7,29.94,NW,315,3.0,6.0,76,0.00,,,0.00,meteohub,2013-06-18 16:27:00,
2013-06-18 09:32:00,70.3,62.4,29.94,NW,315,2.0,4.0,76,0.00,,,0.00,meteohub,2013-06-18 16:32:00,
2013-06-18 09:37:00,72.1,63.9,29.93,WNW,293,3.0,4.0,75,0.00,,,0.00,meteohub,2013-06-18 16:37:00,
2013-06-18 09:42:00,72.9,63.0,29.94,NW,315,2.0,4.0,71,0.00,,,0.00,meteohub,2013-06-18 16:42:00,
2013-06-18 09:47:00,72.9,61.3,29.94,West,270,4.0,4.0,67,0.00,,,0.00,meteohub,2013-06-18 16:47:00,
2013-06-18 09:52:00,70.9,61.9,29.94,NW,315,6.0,9.0,73,0.00,,,0.00,meteohub,2013-06-18 16:52:00,
2013-06-18 09:57:00,71.2,61.7,29.94,WNW,293,7.0,9.0,72,0.00,,,0.00,meteohub,2013-06-18 16:57:00,
2013-06-18 10:02:00,72.0,62.4,29.94,NW,315,4.0,9.0,72,0.00,,,0.00,meteohub,2013-06-18 17:02:00,
2013-06-18 10:07:00,72.1,61.9,29.94,NW,315,4.0,8.0,70,0.00,,,0.00,meteohub,2013-06-18 17:07:00,
2013-06-18 10:12:00,72.1,61.9,29.94,NW,315,8.0,8.0,70,0.00,,,0.00,meteohub,2013-06-18 17:12:00,
2013-06-18 10:17:00,72.3,62.1,29.93,North,0,8.0,10.0,70,0.00,,,0.00,meteohub,2013-06-18 17:17:00,
2013-06-18 10:22:00,72.5,62.6,29.93,West,270,7.0,10.0,71,0.00,,,0.00,meteohub,2013-06-18 17:22:00,
2013-06-18 10:27:00,73.4,62.6,29.93,WNW,293,3.0,11.0,69,0.00,,,0.00,meteohub,2013-06-18 17:27:00,
2013-06-18 10:32:00,74.3,62.2,29.93,West,270,6.0,11.0,66,0.00,,,0.00,meteohub,2013-06-18 17:32:00,
2013-06-18 10:37:00,73.6,61.9,29.94,NW,315,8.0,11.0,67,0.00,,,0.00,meteohub,2013-06-18 17:37:00,
2013-06-18 10:42:00,72.5,61.7,29.94,NW,315,6.0,10.0,69,0.00,,,0.00,meteohub,2013-06-18 17:42:00,
2013-06-18 10:47:00,73.2,62.4,29.94,NW,315,4.0,10.0,69,0.00,,,0.00,meteohub,2013-06-18 17:47:00,
2013-06-18 10:52:00,72.5,62.2,29.94,WNW,293,6.0,10.0,70,0.00,,,0.00,meteohub,2013-06-18 17:52:00,
2013-06-18 10:57:00,73.0,61.9,29.94,NW,315,7.0,10.0,68,0.00,,,0.00,meteohub,2013-06-18 17:57:00,
2013-06-18 11:02:00,73.0,62.2,29.94,WNW,293,10.0,10.0,69,0.00,,,0.00,meteohub,2013-06-18 18:02:00,
2013-06-18 11:07:00,72.9,61.7,29.94,West,270,11.0,11.0,68,0.00,,,0.00,meteohub,2013-06-18 18:07:00,
2013-06-18 11:12:00,72.1,61.9,29.94,NW,315,9.0,11.0,70,0.00,,,0.00,meteohub,2013-06-18 18:12:00,
2013-06-18 11:17:00,72.1,62.6,29.94,West,270,5.0,11.0,72,0.00,,,0.00,meteohub,2013-06-18 18:17:00,
2013-06-18 11:22:00,72.3,62.1,29.94,NW,315,9.0,11.0,70,0.00,,,0.00,meteohub,2013-06-18 18:22:00,
2013-06-18 11:27:00,72.1,62.2,29.94,West,270,8.0,11.0,71,0.00,,,0.00,meteohub,2013-06-18 18:27:00,
2013-06-18 11:32:00,72.5,62.2,29.94,NW,315,10.0,11.0,70,0.00,,,0.00,meteohub,2013-06-18 18:32:00,
2013-06-18 11:37:00,72.5,62.2,29.94,NW,315,13.0,13.0,70,0.00,,,0.00,meteohub,2013-06-18 18:37:00,
2013-06-18 11:42:00,72.0,62.1,29.94,WNW,293,8.0,13.0,71,0.00,,,0.00,meteohub,2013-06-18 18:42:00,
2013-06-18 11:47:00,72.5,61.7,29.94,NW,315,10.0,13.0,69,0.00,,,0.00,meteohub,2013-06-18 18:47:00,
2013-06-18 11:52:00,71.8,61.9,29.94,West,270,8.0,13.0,71,0.00,,,0.00,meteohub,2013-06-18 18:52:00,
2013-06-18 11:57:00,72.1,62.2,29.94,West,270,8.0,14.0,71,0.00,,,0.00,meteohub,2013-06-18 18:57:00,
2013-06-18 12:02:00,72.7,62.2,29.93,NW,315,10.0,14.0,70,0.00,,,0.00,meteohub,2013-06-18 19:02:00,
2013-06-18 12:07:00,72.7,61.5,29.93,West,270,10.0,14.0,68,0.00,,,0.00,meteohub,2013-06-18 19:07:00,
2013-06-18 12:12:00,72.9,61.7,29.93,WNW,293,8.0,11.0,68,0.00,,,0.00,meteohub,2013-06-18 19:12:00,
2013-06-18 12:17:00,72.7,62.2,29.93,NW,315,8.0,11.0,70,0.00,,,0.00,meteohub,2013-06-18 19:17:00,
2013-06-18 12:22:00,73.2,62.1,29.92,NW,315,7.0,11.0,68,0.00,,,0.00,meteohub,2013-06-18 19:22:00,
2013-06-18 12:27:00,73.8,62.6,29.93,NW,315,8.0,11.0,68,0.00,,,0.00,meteohub,2013-06-18 19:27:00,
2013-06-18 12:32:00,73.4,61.7,29.93,WNW,293,11.0,11.0,67,0.00,,,0.00,meteohub,2013-06-18 19:32:00,
2013-06-18 12:37:00,72.5,62.2,29.93,NW,315,4.0,11.0,70,0.00,,,0.00,meteohub,2013-06-18 19:37:00,
2013-06-18 12:42:00,72.3,62.1,29.92,West,270,10.0,11.0,70,0.00,,,0.00,meteohub,2013-06-18 19:42:00,
2013-06-18 12:47:00,72.0,62.1,29.92,West,270,8.0,11.0,71,0.00,,,0.00,meteohub,2013-06-18 19:47:00,
2013-06-18 12:52:00,72.3,62.4,29.92,West,270,11.0,11.0,71,0.00,,,0.00,meteohub,2013-06-18 19:52:00,
2013-06-18 12:57:00,72.7,61.9,29.92,West,270,6.0,11.0,69,0.00,,,0.00,meteohub,2013-06-18 19:57:00,
2013-06-18 13:02:00,73.2,62.4,29.92,WNW,293,7.0,13.0,69,0.00,,,0.00,meteohub,2013-06-18 20:02:00,
2013-06-18 13:07:00,73.4,62.2,29.92,WNW,293,12.0,13.0,68,0.00,,,0.00,meteohub,2013-06-18 20:07:00,
2013-06-18 13:12:00,73.4,62.6,29.92,West,270,7.0,12.0,69,0.00,,,0.00,meteohub,2013-06-18 20:12:00,
2013-06-18 13:17:00,73.2,62.4,29.92,West,270,10.0,12.0,69,0.00,,,0.00,meteohub,2013-06-18 20:17:00,
2013-06-18 13:22:00,73.6,63.7,29.92,West,270,8.0,12.0,71,0.00,,,0.00,meteohub,2013-06-18 20:22:00,
2013-06-18 13:27:00,73.6,62.8,29.92,NW,315,8.0,13.0,69,0.00,,,0.00,meteohub,2013-06-18 20:27:00,
2013-06-18 13:32:00,73.4,62.6,29.91,NW,315,11.0,13.0,69,0.00,,,0.00,meteohub,2013-06-18 20:32:00,
2013-06-18 13:37:00,73.0,62.6,29.91,NW,315,11.0,16.0,70,0.00,,,0.00,meteohub,2013-06-18 20:37:00,
2013-06-18 13:42:00,73.9,62.8,29.92,West,270,7.0,16.0,68,0.00,,,0.00,meteohub,2013-06-18 20:42:00,
2013-06-18 13:47:00,74.3,62.6,29.91,West,270,8.0,16.0,67,0.00,,,0.00,meteohub,2013-06-18 20:47:00,
2013-06-18 13:52:00,73.9,62.2,29.91,NW,315,12.0,12.0,67,0.00,,,0.00,meteohub,2013-06-18 20:52:00,
2013-06-18 13:57:00,73.8,62.6,29.91,West,270,11.0,14.0,68,0.00,,,0.00,meteohub,2013-06-18 20:57:00,
2013-06-18 14:02:00,73.2,62.8,29.91,NW,315,9.0,14.0,70,0.00,,,0.00,meteohub,2013-06-18 21:02:00,
2013-06-18 14:07:00,73.0,62.2,29.91,West,270,10.0,14.0,69,0.00,,,0.00,meteohub,2013-06-18 21:07:00,
2013-06-18 14:12:00,73.2,62.1,29.91,WNW,293,11.0,13.0,68,0.00,,,0.00,meteohub,2013-06-18 21:12:00,
2013-06-18 14:17:00,73.9,62.2,29.91,West,270,11.0,14.0,67,0.00,,,0.00,meteohub,2013-06-18 21:17:00,
2013-06-18 14:22:00,74.3,63.1,29.90,West,270,8.0,14.0,68,0.00,,,0.00,meteohub,2013-06-18 21:22:00,
2013-06-18 14:27:00,73.8,63.0,29.91,West,270,9.0,14.0,69,0.00,,,0.00,meteohub,2013-06-18 21:27:00,
2013-06-18 14:32:00,73.2,62.8,29.91,West,270,10.0,14.0,70,0.00,,,0.00,meteohub,2013-06-18 21:32:00,
2013-06-18 14:37:00,73.6,62.8,29.90,NW,315,12.0,14.0,69,0.00,,,0.00,meteohub,2013-06-18 21:37:00,
2013-06-18 14:42:00,73.2,62.4,29.91,NW,315,10.0,14.0,69,0.00,,,0.00,meteohub,2013-06-18 21:42:00,
2013-06-18 14:47:00,73.2,62.8,29.91,West,270,9.0,13.0,70,0.00,,,0.00,meteohub,2013-06-18 21:47:00,
2013-06-18 14:52:00,73.6,62.8,29.91,West,270,11.0,12.0,69,0.00,,,0.00,meteohub,2013-06-18 21:52:00,
2013-06-18 14:57:00,73.4,63.0,29.90,NW,315,10.0,12.0,70,0.00,,,0.00,meteohub,2013-06-18 21:57:00,
2013-06-18 15:02:00,73.9,63.1,29.90,West,270,11.0,12.0,69,0.00,,,0.00,meteohub,2013-06-18 22:02:00,
2013-06-18 15:07:00,73.8,63.0,29.90,WNW,293,11.0,12.0,69,0.00,,,0.00,meteohub,2013-06-18 22:07:00,
2013-06-18 15:12:00,73.0,63.1,29.90,NW,315,8.0,12.0,71,0.00,,,0.00,meteohub,2013-06-18 22:12:00,
2013-06-18 15:17:00,73.2,63.3,29.90,NW,315,11.0,13.0,71,0.00,,,0.00,meteohub,2013-06-18 22:17:00,
2013-06-18 15:22:00,73.6,63.1,29.89,NW,315,9.0,13.0,70,0.00,,,0.00,meteohub,2013-06-18 22:22:00,
2013-06-18 15:27:00,73.9,63.1,29.90,NW,315,9.0,13.0,69,0.00,,,0.00,meteohub,2013-06-18 22:27:00,
2013-06-18 15:32:00,73.6,63.7,29.89,WNW,293,10.0,12.0,71,0.00,,,0.00,meteohub,2013-06-18 22:32:00,
2013-06-18 15:37:00,73.2,63.7,29.89,West,270,11.0,12.0,72,0.00,,,0.00,meteohub,2013-06-18 22:37:00,
2013-06-18 15:42:00,73.2,64.0,29.88,NW,315,11.0,13.0,73,0.00,,,0.00,meteohub,2013-06-18 22:42:00,
2013-06-18 15:47:00,73.2,63.7,29.89,West,270,9.0,14.0,72,0.00,,,0.00,meteohub,2013-06-18 22:47:00,
2013-06-18 15:52:00,73.8,64.2,29.89,West,270,11.0,14.0,72,0.00,,,0.00,meteohub,2013-06-18 22:52:00,
2013-06-18 15:57:00,73.6,63.1,29.88,NW,315,12.0,14.0,70,0.00,,,0.00,meteohub,2013-06-18 22:57:00,
2013-06-18 16:02:00,73.6,63.7,29.88,West,270,11.0,12.0,71,0.00,,,0.00,meteohub,2013-06-18 23:02:00,
2013-06-18 16:07:00,73.2,63.7,29.88,NW,315,14.0,14.0,72,0.00,,,0.00,meteohub,2013-06-18 23:07:00,
2013-06-18 16:12:00,73.6,63.7,29.88,NW,315,13.0,14.0,71,0.00,,,0.00,meteohub,2013-06-18 23:12:00,
2013-06-18 16:17:00,73.6,63.7,29.88,West,270,10.0,14.0,71,0.00,,,0.00,meteohub,2013-06-18 23:17:00,
2013-06-18 16:22:00,73.2,63.3,29.88,West,270,15.0,15.0,71,0.00,,,0.00,meteohub,2013-06-18 23:22:00,
2013-06-18 16:27:00,73.0,63.5,29.87,NW,315,11.0,15.0,72,0.00,,,0.00,meteohub,2013-06-18 23:27:00,
2013-06-18 16:32:00,73.4,63.5,29.87,West,270,13.0,15.0,71,0.00,,,0.00,meteohub,2013-06-18 23:32:00,
2013-06-18 16:37:00,73.4,63.9,29.87,West,270,10.0,15.0,72,0.00,,,0.00,meteohub,2013-06-18 23:37:00,
2013-06-18 16:42:00,73.8,63.3,29.87,NW,315,11.0,15.0,70,0.00,,,0.00,meteohub,2013-06-18 23:42:00,
2013-06-18 16:47:00,73.8,63.3,29.86,NNW,338,14.0,15.0,70,0.00,,,0.00,meteohub,2013-06-18 23:47:00,
2013-06-18 16:52:00,72.9,63.0,29.86,West,270,14.0,14.0,71,0.00,,,0.00,meteohub,2013-06-18 23:52:00,
2013-06-18 16:57:00,73.2,62.8,29.86,NW,315,12.0,15.0,70,0.00,,,0.00,meteohub,2013-06-18 23:57:00,
2013-06-18 17:02:00,73.0,63.5,29.86,West,270,8.0,15.0,72,0.00,,,0.00,meteohub,2013-06-19 00:02:00,
2013-06-18 17:07:00,73.6,63.1,29.86,NW,315,7.0,15.0,70,0.00,,,0.00,meteohub,2013-06-19 00:07:00,
2013-06-18 17:12:00,73.2,63.3,29.86,NW,315,11.0,14.0,71,0.00,,,0.00,meteohub,2013-06-19 00:12:00,
2013-06-18 17:17:00,73.4,63.0,29.86,NW,315,8.0,12.0,70,0.00,,,0.00,meteohub,2013-06-19 00:17:00,
2013-06-18 17:22:00,73.4,62.6,29.86,West,270,11.0,12.0,69,0.00,,,0.00,meteohub,2013-06-19 00:22:00,
2013-06-18 17:27:00,73.2,62.8,29.86,West,270,10.0,12.0,70,0.00,,,0.00,meteohub,2013-06-19 00:27:00,
2013-06-18 17:32:00,73.4,63.0,29.86,West,270,10.0,13.0,70,0.00,,,0.00,meteohub,2013-06-19 00:32:00,
2013-06-18 17:37:00,73.0,63.5,29.86,NW,315,10.0,13.0,72,0.00,,,0.00,meteohub,2013-06-19 00:37:00,
2013-06-18 17:42:00,72.9,63.7,29.86,WNW,293,8.0,12.0,73,0.00,,,0.00,meteohub,2013-06-19 00:42:00,
2013-06-18 17:47:00,72.5,64.0,29.86,NW,315,11.0,12.0,75,0.00,,,0.00,meteohub,2013-06-19 00:47:00,
2013-06-18 17:52:00,72.5,64.6,29.86,WNW,293,8.0,12.0,76,0.00,,,0.00,meteohub,2013-06-19 00:52:00,
2013-06-18 17:57:00,72.1,63.9,29.86,West,270,11.0,12.0,75,0.00,,,0.00,meteohub,2013-06-19 00:57:00,
2013-06-18 18:02:00,71.8,64.2,29.85,WNW,293,8.0,14.0,77,0.00,,,0.00,meteohub,2013-06-19 01:02:00,
2013-06-18 18:07:00,71.4,64.2,29.86,West,270,13.0,14.0,78,0.00,,,0.00,meteohub,2013-06-19 01:07:00,
2013-06-18 18:12:00,70.9,64.4,29.86,West,270,7.0,14.0,80,0.00,,,0.00,meteohub,2013-06-19 01:12:00,
2013-06-18 18:17:00,71.2,64.4,29.86,WNW,293,11.0,14.0,79,0.00,,,0.00,meteohub,2013-06-19 01:17:00,
2013-06-18 18:22:00,71.1,64.2,29.86,West,270,8.0,14.0,79,0.00,,,0.00,meteohub,2013-06-19 01:22:00,
2013-06-18 18:27:00,70.3,63.9,29.86,West,270,14.0,14.0,80,0.00,,,0.00,meteohub,2013-06-19 01:27:00,
2013-06-18 18:32:00,69.4,64.4,29.86,NW,315,9.0,14.0,84,0.00,,,0.00,meteohub,2013-06-19 01:32:00,
2013-06-18 18:37:00,69.6,64.2,29.86,WNW,293,11.0,14.0,83,0.00,,,0.00,meteohub,2013-06-19 01:37:00,
2013-06-18 18:42:00,69.6,64.2,29.86,WNW,293,8.0,14.0,83,0.00,,,0.00,meteohub,2013-06-19 01:42:00,
2013-06-18 18:47:00,69.3,64.2,29.86,WNW,293,14.0,14.0,84,0.00,,,0.00,meteohub,2013-06-19 01:47:00,
2013-06-18 18:52:00,68.9,64.2,29.86,WNW,293,9.0,14.0,85,0.00,,,0.00,meteohub,2013-06-19 01:52:00,
2013-06-18 18:57:00,68.9,64.2,29.86,NW,315,11.0,14.0,85,0.00,,,0.00,meteohub,2013-06-19 01:57:00,
2013-06-18 19:02:00,68.5,64.6,29.86,WNW,293,7.0,14.0,87,0.00,,,0.00,meteohub,2013-06-19 02:02:00,
2013-06-18 19:07:00,68.5,64.2,29.86,West,270,8.0,13.0,86,0.00,,,0.00,meteohub,2013-06-19 02:07:00,
2013-06-18 19:12:00,68.2,64.2,29.86,West,270,8.0,13.0,87,0.00,,,0.00,meteohub,2013-06-19 02:12:00,
2013-06-18 19:17:00,68.0,63.7,29.86,NW,315,9.0,12.0,86,0.00,,,0.00,meteohub,2013-06-19 02:17:00,
2013-06-18 19:22:00,67.6,63.7,29.86,West,270,8.0,12.0,87,0.00,,,0.00,meteohub,2013-06-19 02:22:00,
2013-06-18 19:27:00,67.5,63.9,29.86,WNW,293,10.0,12.0,88,0.00,,,0.00,meteohub,2013-06-19 02:27:00,
2013-06-18 19:32:00,67.1,63.7,29.86,WNW,293,11.0,13.0,89,0.00,,,0.00,meteohub,2013-06-19 02:32:00,
2013-06-18 19:37:00,66.7,63.3,29.86,NW,315,9.0,13.0,89,0.00,,,0.00,meteohub,2013-06-19 02:37:00,
2013-06-18 19:42:00,66.6,63.5,29.86,NW,315,11.0,12.0,90,0.00,,,0.00,meteohub,2013-06-19 02:42:00,
2013-06-18 19:47:00,66.4,63.7,29.86,West,270,4.0,11.0,91,0.00,,,0.00,meteohub,2013-06-19 02:47:00,
2013-06-18 19:52:00,66.0,63.7,29.86,NW,315,8.0,11.0,92,0.00,,,0.00,meteohub,2013-06-19 02:52:00,
2013-06-18 19:57:00,65.8,63.7,29.86,NW,315,8.0,11.0,93,0.00,,,0.00,meteohub,2013-06-19 02:57:00,
2013-06-18 20:02:00,65.7,63.5,29.86,West,270,9.0,11.0,93,0.00,,,0.00,meteohub,2013-06-19 03:02:00,
2013-06-18 20:07:00,65.5,63.3,29.86,West,270,8.0,11.0,93,0.00,,,0.00,meteohub,2013-06-19 03:07:00,
2013-06-18 20:12:00,65.3,63.5,29.86,West,270,7.0,9.0,94,0.00,,,0.00,meteohub,2013-06-19 03:12:00,
2013-06-18 20:17:00,65.1,63.3,29.86,WNW,293,6.0,9.0,94,0.00,,,0.00,meteohub,2013-06-19 03:17:00,
2013-06-18 20:22:00,65.1,63.7,29.86,NW,315,4.0,8.0,95,0.00,,,0.00,meteohub,2013-06-19 03:22:00,
2013-06-18 20:28:00,64.9,63.5,29.86,West,270,4.0,8.0,95,0.00,,,0.00,meteohub,2013-06-19 03:28:00,
2013-06-18 20:33:00,64.9,63.5,29.86,West,270,6.0,8.0,95,0.00,,,0.00,meteohub,2013-06-19 03:33:00,
2013-06-18 20:38:00,64.9,63.5,29.86,West,270,8.0,8.0,95,0.00,,,0.00,meteohub,2013-06-19 03:38:00,
2013-06-18 20:43:00,64.9,63.5,29.86,West,270,7.0,8.0,95,0.00,,,0.00,meteohub,2013-06-19 03:43:00,
2013-06-18 20:48:00,64.9,63.5,29.86,WNW,293,6.0,8.0,95,0.00,,,0.00,meteohub,2013-06-19 03:48:00,
2013-06-18 20:53:00,64.9,63.5,29.86,West,270,4.0,8.0,95,0.00,,,0.00,meteohub,2013-06-19 03:53:00,
2013-06-18 20:58:00,64.8,63.3,29.86,West,270,4.0,8.0,95,0.00,,,0.00,meteohub,2013-06-19 03:58:00,
2013-06-18 21:01:00,64.8,63.3,29.86,NW,315,5.0,8.0,95,0.00,,,0.00,meteohub,2013-06-19 04:01:00,
2013-06-18 21:03:00,64.8,63.7,29.86,West,270,4.0,8.0,96,0.00,,,0.00,meteohub,2013-06-19 04:03:00,
2013-06-18 21:08:00,64.9,63.9,29.86,NW,315,4.0,8.0,96,0.00,,,0.00,meteohub,2013-06-19 04:08:00,
2013-06-18 21:13:00,64.8,63.7,29.86,West,270,4.0,8.0,96,0.00,,,0.00,meteohub,2013-06-19 04:13:00,
2013-06-18 21:18:00,64.8,63.7,29.86,West,270,3.0,7.0,96,0.00,,,0.00,meteohub,2013-06-19 04:18:00,
2013-06-18 21:23:00,64.6,63.5,29.86,NW,315,5.0,7.0,96,0.00,,,0.00,meteohub,2013-06-19 04:23:00,
2013-06-18 21:28:00,64.4,63.3,29.86,West,270,4.0,6.0,96,0.00,,,0.00,meteohub,2013-06-19 04:28:00,
2013-06-18 21:33:00,64.2,63.1,29.86,West,270,4.0,6.0,96,0.00,,,0.00,meteohub,2013-06-19 04:33:00,
2013-06-18 21:38:00,64.2,62.8,29.87,West,270,4.0,6.0,95,0.00,,,0.00,meteohub,2013-06-19 04:38:00,
2013-06-18 21:43:00,64.0,62.6,29.87,West,270,4.0,6.0,95,0.00,,,0.00,meteohub,2013-06-19 04:43:00,
2013-06-18 21:48:00,64.0,62.6,29.87,West,270,6.0,6.0,95,0.00,,,0.00,meteohub,2013-06-19 04:48:00,
2013-06-18 21:53:00,63.9,62.4,29.87,West,270,6.0,6.0,95,0.00,,,0.00,meteohub,2013-06-19 04:53:00,
2013-06-18 21:58:00,63.9,62.4,29.87,West,270,4.0,6.0,95,0.00,,,0.00,meteohub,2013-06-19 04:58:00,
2013-06-18 22:03:00,63.7,62.2,29.88,West,270,4.0,6.0,95,0.00,,,0.00,meteohub,2013-06-19 05:03:00,
2013-06-18 22:08:00,63.7,62.2,29.87,West,270,4.0,6.0,95,0.00,,,0.00,meteohub,2013-06-19 05:08:00,
2013-06-18 22:13:00,63.5,62.1,29.88,West,270,4.0,6.0,95,0.00,,,0.00,meteohub,2013-06-19 05:13:00,
2013-06-18 22:18:00,63.5,62.1,29.88,West,270,5.0,6.0,95,0.00,,,0.00,meteohub,2013-06-19 05:18:00,
2013-06-18 22:23:00,63.3,61.9,29.87,West,270,3.0,5.0,95,0.00,,,0.00,meteohub,2013-06-19 05:23:00,
2013-06-18 22:28:00,63.5,62.4,29.88,West,270,6.0,6.0,96,0.00,,,0.00,meteohub,2013-06-19 05:28:00,
2013-06-18 22:33:00,63.5,62.1,29.88,West,270,4.0,6.0,95,0.00,,,0.00,meteohub,2013-06-19 05:33:00,
2013-06-18 22:38:00,63.3,62.2,29.88,West,270,4.0,6.0,96,0.00,,,0.00,meteohub,2013-06-19 05:38:00,
2013-06-18 22:43:00,63.3,62.2,29.88,West,270,4.0,6.0,96,0.00,,,0.00,meteohub,2013-06-19 05:43:00,
2013-06-18 22:48:00,63.1,62.1,29.88,West,270,3.0,5.0,96,0.00,,,0.00,meteohub,2013-06-19 05:48:00,
2013-06-18 22:53:00,63.1,62.1,29.88,West,270,2.0,4.0,96,0.00,,,0.00,meteohub,2013-06-19 05:53:00,
2013-06-18 22:58:00,63.1,62.2,29.88,West,270,2.0,4.0,97,0.00,,,0.00,meteohub,2013-06-19 05:58:00,
2013-06-18 23:03:00,63.0,61.9,29.88,West,270,3.0,4.0,96,0.00,,,0.00,meteohub,2013-06-19 06:03:00,
2013-06-18 23:08:00,63.0,62.1,29.87,West,270,3.0,4.0,97,0.00,,,0.00,meteohub,2013-06-19 06:08:00,
2013-06-18 23:13:00,63.0,62.1,29.87,West,270,2.0,3.0,97,0.00,,,0.00,meteohub,2013-06-19 06:13:00,
2013-06-18 23:18:00,63.0,62.1,29.87,West,270,2.0,4.0,97,0.00,,,0.00,meteohub,2013-06-19 06:18:00,
2013-06-18 23:23:00,62.8,61.9,29.87,West,270,4.0,4.0,97,0.00,,,0.00,meteohub,2013-06-19 06:23:00,
2013-06-18 23:28:00,62.8,61.9,29.87,West,270,3.0,5.0,97,0.00,,,0.00,meteohub,2013-06-19 06:28:00,
2013-06-18 23:33:00,62.8,62.2,29.87,West,270,4.0,5.0,98,0.00,,,0.00,meteohub,2013-06-19 06:33:00,
2013-06-18 23:38:00,62.8,62.2,29.87,WNW,293,4.0,5.0,98,0.00,,,0.00,meteohub,2013-06-19 06:38:00,
2013-06-18 23:43:00,62.8,62.2,29.87,NW,315,3.0,4.0,98,0.00,,,0.00,meteohub,2013-06-19 06:43:00,
2013-06-18 23:48:00,62.8,62.2,29.87,NW,315,3.0,4.0,98,0.00,,,0.00,meteohub,2013-06-19 06:48:00,
2013-06-18 23:53:00,62.8,62.2,29.87,NW,315,1.0,4.0,98,0.00,,,0.00,meteohub,2013-06-19 06:53:00,
2013-06-18 23:58:00,62.6,62.1,29.87,West,270,2.0,3.0,98,0.00,,,0.00,meteohub,2013-06-19 06:58:00,